www.pogodaiklimat.ru

Погода и климат >> Архив погоды >> Россия >> Оренбургская область >> Энергетик


ПОГОДА в Энергетике

  • Прогноз погоды в Энергетике
  • Монитор погоды в Энергетике

АРХИВ ПОГОДЫ в Энергетике

Время (UTC), дата Ветер
(напр.,м/с)
 
Видим.   Явления Облачность Т
(С)
Тd
(С)
f
(%)
Тe
(С)
Тes
(С)
Комфортность P
(гПа)
Po
(гПа)
Тmin
(С)
Tmax
(С)
R
(мм)
R24
(мм)
S
(см)
18 14.07 В 1 4000 м 9/8 600 м
[Sc diur, vesp Ac und]
+25.8 +11.4 41 +27 +27 жарко 1002.3 972.8
21 14.07 В 4 4000 м 8/4 600 м
[Sc diur, vesp Ac lent]
+22.8 +11.4 49 +25 +25 комфорт 1000.0 970.2
00 15.07 ЮВ 7-11
{13}
26 км 9/9 600 м
[Sc]
+27.8 +3.0 20 +26 +26 жарко 997.2 967.9
03 15.07 Ю 9-15
{17}
30 км 8/3 600 м
[Cu hum Ac cast Cc]
+29.3 +3.2 19 +27 +28 жарко 995.4 966.4 +22.2
06 15.07 З 7-12
{15}
40 км 1/0
[Ci fib]
+27.4 +11.9 38 +29 +32 жарко 998.1 968.9
09 15.07 ЮЗ 10-14
{14}
40 км 3/3 600 м
[Cu med, cong Ci fib]
+25.0 +12.1 45 +27 +27 жарко 999.3 970.1
12 15.07 штиль 0-13
{14}
50 км ?/? +23.6 +10.4 43 +25 +25 комфорт 1003.0 973.3
15 15.07 З 6-10
{14}
30 км ясно +21.7 +8.7 43 +23 +23 комфорт 1005.1 975.1 +29.4
18 15.07 З 5
{14}
4000 м ясно +17.7 +9.2 57 +17 +17 1007.7 977.2
21 15.07 З 4
{10}
4000 м ясно +15.9 +9.3 65 +15 +15 1008.7 978.0
00 16.07 З 4 26 км ясно +14.9 +9.3 69 +14 +14 1010.2 979.4
03 16.07 З 4 30 км ясно +18.8 +10.1 57 +19 +22 1010.9 980.4 +14.4
06 16.07 З 4
{10}
40 км ясно +23.8 +6.6 33 +24 +33 комфорт 1010.8 980.8
09 16.07 СЗ 3 40 км ясно +27.5 +5.8 25 +27 +40 жарко 1010.3 980.7
12 16.07 С 2 35 км 3/0
[Ci fib]
+28.5 +7.1 26 +28 +35 жарко 1009.7 980.4
15 16.07 СЗ 2 35 км 9/0
[Ci fib]
+26.8 +7.3 29 +26 +27 жарко 1010.7 981.0 +29.0
18 16.07 С 1 4000 м 9/0
[Ci fib]
+21.8 +9.9 47 +23 +23 комфорт 1012.4 982.2
21 16.07 С 1 4000 м 6/0
[Ci fib]
+18.0 +9.3 57 +19 +19 1013.8 983.2
00 17.07 С 2 26 км 4/0
[Ac trans]
+15.8 +8.9 64 +16 +16 1014.7 983.8
03 17.07 В 3 30 км 3/0
[Ac trans]
+19.4 +9.3 52 +21 +23 комфорт 1014.8 984.3 +15.5
06 17.07 ЮВ 3 35 км 8/0
[Ac trans Cc]
+27.7 +7.3 28 +27 +35 жарко 1012.6 983.0
09 17.07 С 2
{13}
40 км 6/1 1000 м
[Cu hum Ac cast Cc]
+30.4 +6.1 22 +29 +39 жарко 1011.5 982.1
12 17.07 В 3
{13}
40 км 3/1 1000 м
[Cu hum Ci fib]
+31.6 +4.7 18 +29 +35 жарко 1010.1 980.9
15 17.07 ЮВ 4 30 км 9/5 600 м
[Sc Ac trans Ci fib]
+30.0 +5.1 21 +28 +28 жарко 1009.8 980.4 +32.3
18 17.07 В 2 4000 м 10/6 600 м
[Cb cap Ac As]
+25.1 +11.1 41 +26 +26 жарко 1010.3 980.5
21 17.07 штиль 0 4000 м 9/3 600 м
[Cb cap Ac trans]
+22.9 +7.3 37 +24 +24 комфорт 1010.7 980.6
00 18.07 В 1 26 км 6/0
[Ac lent Ci fib]
+18.2 +7.9 51 +19 +19 1011.5 981.0
03 18.07 ЮВ 2 30 км 8/6 1000 м
[Cu hum Ac cast Ci fib]
+22.5 +5.0 32 +23 +24 комфорт 1011.2 981.1 +15.8
06 18.07 Ю 4 40 км 4/1 600 м
[Sc Ac cast Cc]
+31.5 +4.2 18 +29 +36 жарко 1009.5 980.3
09 18.07 Ю 5
{11}
40 км 4/3 600 м
[Sc Ac lent Ci fib]
+35.7 +2.1 12 +32 +38 жарко 1007.8 979.0
12 18.07 Ю 4
{11}
35 км 9/4 600 м
[Cu Sc Ac cast Ci fib]
+35.6 +1.8 12 +32 +34 жарко 1006.5 977.7
15 18.07 Ю 2 30 км 9/8 600 м
[Cb cap Ac cast]
+32.6 +2.8 15 +30 +30 жарко 1007.1 978.0 +36.9
18 18.07 Ю 3 4000 м 6/4 600 м
[Sc diur, vesp Ac cast]
+28.0 +3.7 21 +26 +26 жарко 1007.9 978.4
21 18.07 Ю 4 4000 м 4/3 600 м
[Sc diur, vesp Ac lent]
+24.6 +3.5 25 +24 +24 комфорт 1008.3 978.5
00 19.07 Ю 5 26 км 9/5 600 м
[Cu Sc Ac cast Cc]
+23.6 +4.1 28 +23 +23 комфорт 1009.0 979.1
03 19.07 ЮЗ 5 30 км 6/3 600 м
[Cu Sc Ac trans]
+26.6 +3.6 23 +25 +26 комфорт 1009.5 979.8 +21.9
06 19.07 Ю 3
{12}
40 км 9/4 600 м
[Cb cap Ac cuf Cc]
+31.6 +1.1 14 +29 +33 жарко 1008.9 979.7
09 19.07 Ю 3 40 км 9/3 600 м
[Cu med, cong Cc]
+36.5 +3.1 12 +33 +41 жарко 1007.1 978.4
12 19.07 ЮЗ 3
{11}
30 км 10/5 600 м
[Cb cap Ac As]
+31.8 +6.1 20 +30 +31 жарко 1008.5 979.4
15 19.07 В 4 30 км 9/9 600 м
[Cb cap]
+27.9 +9.7 32 +28 +28 жарко 1007.4 978.0 +36.9
18 19.07 В 6-10
{10}
4000 м 10/8 600 м
[Cb cap As op]
+28.3 +7.3 27 +28 +28 жарко 1007.0 977.6
21 19.07 В 4
{13}
4000 м 10/5 600 м
[Cb cap Ac As]
+27.1 +7.9 30 +27 +27 жарко 1006.7 977.2
00 20.07 В 5
{10}
26 км 6/3 600 м
[Cb cap Ac trans Ci fib]
+25.1 +9.9 38 +26 +26 жарко 1006.4 976.7
03 20.07 В 8-11
{14}
30 км 3/0
[Ac cast Ci fib]
+25.5 +11.1 40 +27 +27 жарко 1005.4 975.8 +23.5
06 20.07 В 7-11
{13}
40 км 9/0
[Ci fib]
+33.2 +3.4 15 +30 +33 жарко 1003.2 974.3
09 20.07 ЮВ 4
{13}
40 км 6/0
[Ci fib]
+37.0 +5.3 14 +34 +43 очень
жарко
1001.3 972.8
12 20.07 ЮВ 3 40 км ясно +38.4 +4.8 13 +36 +42 очень
жарко
999.9 971.6
15 20.07 ЮЗ 1 30 км 9/0
[Ci fib]
+35.1 +7.6 18 +33 +33 жарко 999.6 971.0 +38.6
18 20.07 СЗ 5
{12}
4000 м 9/0
[Ci fib]
+26.5 +12.6 42 +28 +28 жарко 1001.8 972.4
21 20.07 СЗ 5
{15}
4000 м 8/0
[Ci fib]
+24.5 +13.2 49 +27 +27 жарко 1002.3 972.8
00 21.07 СЗ 6-12
{13}
26 км 3/0
[Ci fib]
+22.0 +14.8 64 +25 +25 комфорт 1004.8 974.9
03 21.07 С 5-10
{16}
30 км ясно +22.4 +12.7 54 +25 +27 комфорт 1007.9 977.9 +21.5
06 21.07 С 4
{11}
40 км 3/1 1000 м
[Cu med, cong Cc]
+27.2 +12.3 40 +29 +36 жарко 1008.6 979.1
09 21.07 С 5-10
{12}
35 км 6/6 600 м
[Cu med, cong]
+29.3 +7.7 26 +29 +32 жарко 1008.7 979.3
12 21.07 З 5-10
{11}
35 км 6/5 600 м
[Cu Sc Ci fib]
+29.7 +9.6 29 +30 +31 жарко 1009.1 979.7
15 21.07 СЗ 3
{10}
30 км 4/3 600 м
[Sc diur, vesp Ci fib]
+27.2 +6.9 28 +27 +27 жарко 1010.2 980.6 +30.4

 

Местоположение метеостанции Энергетик (Оренбургская область, Россия): широта 51.77 долгота 58.83 высота над уровнем моря 265 м.

В архиве по умолчанию представлена погода в Энергетике за последнюю неделю. Архивные данные за месяц целиком и за предыдущие месяцы, начиная с января 2011 года, Вы можете получить, выбрав интересующий диапазон дат из раскрывающегося списка и нажав кнопку "Ввод!".


*Определитесь, кто Вы:
робот инопланетянин человек

Внимание! Время в таблицах - всемирное. Для получения местного времени необходимо прибавить поправку, которая равна 5 ч.

Смотрите также архив погоды в соседних городах и на ближайших метеорологических станциях:

Погода в Акъяре (Башкирия, Россия) (46 км)
Погода в Айдырля (Оренбургская область, Россия) (75 км)
Погода в Орске (Оренбургская область, Россия) (79 км)
Погода в Кизильском (Челябинская область, Россия) (106 км)
Погода в Кувандыке (Оренбургская область, Россия) (106 км)
Погода в Зилаире (Башкирия, Россия) (110 км)
Погода в Степном (Актюбинская область, Казахстан) (117 км)
Погода в Домбаровском (Оренбургская область, Россия) (124 км)
Погода в Бредах (Челябинская область, Россия) (127 км)
Погода в Кос-Истеке (Актюбинская область, Казахстан) (133 км)

Пояснения к столбцам:

Ветер - указаны скорость ветра в м/с - средняя за 10 мин, порывы в срок и между сроками (в фигурных скобках) и направление, откуда дует ветер: С - северный, СВ - северо-восточный, В - восточный, ЮВ - юго-восточный, Ю - южный, ЮЗ - юго-западный, З - западный, СЗ - северо-западный.
Видимость - горизонтальная дальность видимости в метрах или километрах. При видимости от 1 до 10 км при отсутствии осадков обычно наблюдается дымка, при ухудшении видимости до 1 км и менее - туман. В сухую погоду видимость может ухудшаться дымом, пылью или мглою.
Явления - указаны атмосферные явления, наблюдавшиеся в срок или в последний час перед сроком; фигурными скобками обозначены явления, наблюдавшиеся между сроками (за 1-3 часа до срока); квадратными скобками обозначены град или гололедные отложения с указанием их диаметра в мм.
Облачность - указаны через наклонную черту общая и нижняя облачность в баллах и высота нижней границы облаков в метрах; квадратными скобками обозначены формы облаков: Ci - перистые, Cs - перисто-слоистые, Cc - перисто-кучевые, Ac - высококучевые, As - высокослоистые, Sc - слоисто-кучевые, Ns - слоисто-дождевые, Cu - кучевые, Cb - кучево-дождевые. Подробнее классификацию облаков см. в Атласе облаков (PDF).
T - Температура воздуха - температура, измеренная на высоте 2 м над землей.
Td - Температура точки росы - температура, при понижении до которой содержащийся в воздухе водяной пар достигнет насыщения.
f - Относительная влажность воздуха - влажноcть воздуха, измеренная на высоте 2 м над землей.
Te - Эффективная температура - температура, которую ощущает одетый по сезону человек в тени. Характеристика душности погоды. При расчете учитывается влияние влажности воздуха и скорости ветра на теплоощущения человека.
Tes - Эффективная температура на солнце - температура, которую ощущает человек, с поправкой на солнечный нагрев. Характеристика знойности погоды. Зависит от высоты солнца над горизонтом, облачности и скорости ветра. Ночью, в пасмурную погоду, а также при ветре 12 м/с и более поправка равна нулю.
P - Атмосферное давление - приведенное к уровню моря атмосферное давление.
Po - Атмосферное давление - измеренное на уровне метеостанции атмосферное давление.
Tmin - Минимальная температура - минимум температуры воздуха на высоте 2 м над землей.
Tmax - Максимальная температура - максимум температуры воздуха на высоте 2 м над землей.
R - Количество осадков - Количество выпавших осадков за период времени, мм. При наведении курсора мыши на число - период времени, за который выпало указанное количество осадков.
R24 - Количество осадков - Количество выпавших осадков за 24 часа, мм.
S - Снежный покров - Высота снежного покрова, см. При наведении курсора мыши на число - состояние снежного покрова и степень покрытия местности в баллах.